Simultaneous Nadir Overpasses (SNOs) Predictions

Prediction of SNOs between LANDSAT-8 and METOP-A Satellite Orbit:

Table of predicted SNOs for the next 14.0 days since TLE Epoch: 1/8/2016
Index Date (LANDSAT-8) Time (LANDSAT-8) Lat,Lon (LANDSAT-8) SZA (LANDSAT-8 ) Date (METOP-A) Time (METOP-A) Lat,Lon (METOP-A) SZA (METOP-A ) Distance(km) Time Diff (sec)
1 01/08/2016 23:47:59 81.10,-137.52 105.04 01/08/2016 23:46:52 81.10,-137.55 105.02 0.54 67
2 01/09/2016 00:37:25 -81.12, 30.40 74.93 01/09/2016 00:37:31 -81.12, 30.43 74.92 0.62 6
3 01/11/2016 19:22:14 81.11, -70.96 104.63 01/11/2016 19:21:14 81.10, -71.06 104.59 1.94 60
4 01/11/2016 20:11:40 -81.13, 96.99 75.34 01/11/2016 20:11:53 -81.12, 96.92 75.34 1.33 13
5 01/14/2016 14:56:30 81.11, -4.46 104.15 01/14/2016 14:55:37 81.10, -4.61 104.11 2.69 53
6 01/14/2016 15:45:56 -81.14, 163.51 75.82 01/14/2016 15:46:16 -81.13, 163.38 75.83 2.58 20
7 01/17/2016 10:30:46 81.11, 61.97 103.60 01/17/2016 10:30:00 81.11, 61.82 103.57 2.79 46
8 01/17/2016 11:20:12 -81.14,-130.03 76.36 01/17/2016 11:20:39 -81.13,-130.20 76.37 3.12 27
9 01/20/2016 06:05:01 81.11, 128.34 103.00 01/20/2016 06:04:22 81.10, 128.21 102.97 2.26 39




NCC Satellite Simultaneous Nadir Overpasses (SNOs) Prediction Service
